Weather History for KODX - October, 2012

Change the Weather History Date:

Friday, October 19, 2012

  Actual Average Record
Temperature  
Mean Temperature 47 °F 48 °F  
Max Temperature 60 °F 61 °F 90 °F (2003)
Min Temperature 34 °F 35 °F 21 °F (2006)
Degree Days  
Heating Degree Days 18 17  
Month to date heating degree days 298 253  
Since 1 July heating degree days 440 390  
Cooling Degree Days 0 0  
Month to date cooling degree days 0 6  
Year to date cooling degree days 1220 844  
Moisture  
Dew Point 29 °F    
Average Humidity 52    
Maximum Humidity 76    
Minimum Humidity 27    
Precipitation  
Precipitation 0.00 in 0.07 in 1.51 in (1904)
Month to date precipitation 0.01 1.30  
Year to date precipitation 11.06 22.65  
Sea Level Pressure  
Sea Level Pressure 29.85 in    
Wind  
Wind Speed 14 mph (NW)    
Max Wind Speed 35 mph    
Max Gust Speed 47 mph    
Visibility 10 miles    
Events      
T = Trace of Precipitation, MM = Missing Value Source: NWS Daily Summary

Daily Weather History Graph

Daily Weather History Graph

Search for Another Location

Airport or City:

Trip Planner

Search our weather history database for the weather conditions in past years. The results will help you decide how hot, cold, wet, or windy it might be!

Date:

Astronomy

Oct. 19, 2012 Rise Set
Actual Time 7:53 AM CDT 6:47 PM CDT
Civil Twilight 7:24 AM CDT 7:15 PM CDT
Nautical Twilight 6:52 AM CDT 7:48 PM CDT
Astronomical Twilight 6:20 AM CDT 8:20 PM CDT
Moon 12:40 PM CDT (10/19) 10:25 PM CDT (10/19)
Length of Visible Light 11h 50m
Length of Day
10h 54m
Waxing Crescent, 24% of the Moon is Illuminated
Oct 19
Waxing Crescent
Oct 21
First Quarter
Oct 29
Full
Nov 6
Last Quarter
Nov 13
New

Hourly Weather History & Observations

Time (CDT) Temp. Windchill Dew Point Humidity Pressure Visibility Wind Dir Wind Speed Gust Speed Precip Events Conditions
12:53 AM 44.1 °F 33.7 °F 30.9 °F 60% 29.81 in 10.0 mi NW 32.2 mph 46.0 mph N/A   Partly Cloudy
1:53 AM 42.1 °F 32.1 °F 30.0 °F 62% 29.82 in 10.0 mi NW 25.3 mph 39.1 mph N/A   Clear
2:53 AM 41.0 °F 31.6 °F 28.9 °F 62% 29.83 in 10.0 mi NNW 20.7 mph 34.5 mph N/A   Clear
3:53 AM 39.9 °F 29.0 °F 30.0 °F 68% 29.83 in 10.0 mi NNW 26.5 mph 34.5 mph N/A   Clear
4:53 AM 39.0 °F 27.6 °F 30.0 °F 70% 29.84 in 10.0 mi NW 27.6 mph 36.8 mph N/A   Clear
5:53 AM 39.0 °F 28.0 °F 30.9 °F 73% 29.86 in 10.0 mi NW 25.3 mph 36.8 mph N/A   Clear
6:44 AM 39.2 °F 28.7 °F 30.2 °F 70% 29.84 in 10.0 mi NW 23.0 mph 28.8 mph N/A   Mostly Cloudy
6:53 AM 39.0 °F 29.3 °F 30.9 °F 73% 29.87 in 10.0 mi NW 19.6 mph 29.9 mph N/A   Mostly Cloudy
7:06 AM 39.2 °F 28.7 °F 30.2 °F 70% 29.84 in 10.0 mi NW 23.0 mph 31.1 mph N/A   Scattered Clouds
7:23 AM 39.2 °F 29.3 °F 30.2 °F 70% 29.84 in 10.0 mi NW 20.7 mph 31.1 mph N/A   Mostly Cloudy
7:53 AM 37.9 °F 27.9 °F 30.9 °F 76% 29.88 in 10.0 mi NW 19.6 mph - N/A   Partly Cloudy
8:53 AM 37.9 °F 27.1 °F 30.0 °F 73% 29.89 in 10.0 mi NW 23.0 mph 28.8 mph N/A   Clear
9:38 AM 39.2 °F 29.8 °F 30.2 °F 70% 29.87 in 10.0 mi NW 18.4 mph 27.6 mph N/A   Mostly Cloudy
9:53 AM 42.1 °F 33.3 °F 30.9 °F 65% 29.90 in 10.0 mi NW 19.6 mph 28.8 mph N/A   Overcast
10:53 AM 44.1 °F 35.4 °F 32.0 °F 63% 29.91 in 10.0 mi NNW 21.9 mph 28.8 mph N/A   Overcast
11:53 AM 46.9 °F - 33.1 °F 59% 29.91 in 10.0 mi NW 20.7 mph 27.6 mph N/A   Mostly Cloudy
12:01 PM 46.4 °F 39.0 °F 33.8 °F 62% 29.88 in 10.0 mi NW 19.6 mph 28.8 mph N/A   Scattered Clouds
12:53 PM 48.9 °F - 32.0 °F 52% 29.89 in 10.0 mi WNW 16.1 mph - N/A   Clear
1:53 PM 52.0 °F - 30.9 °F 45% 29.86 in 10.0 mi NNW 16.1 mph 23.0 mph N/A   Clear
2:53 PM 55.0 °F - 30.0 °F 38% 29.83 in 10.0 mi NNW 13.8 mph - N/A   Clear
3:53 PM 57.9 °F - 28.0 °F 32% 29.81 in 10.0 mi NNW 12.7 mph 18.4 mph N/A   Clear
4:53 PM 60.1 °F - 26.1 °F 27% 29.80 in 10.0 mi NW 9.2 mph - N/A   Clear
5:53 PM 55.9 °F - 23.0 °F 28% 29.81 in 10.0 mi NW 6.9 mph - N/A   Clear
6:53 PM 48.9 °F - 24.1 °F 38% 29.82 in 10.0 mi Calm Calm - N/A   Clear
7:53 PM 39.9 °F - 21.9 °F 49% 29.83 in 10.0 mi Calm Calm - N/A   Clear
8:53 PM 39.0 °F - 24.1 °F 55% 29.83 in 10.0 mi Calm Calm - N/A   Clear
9:53 PM 35.1 °F 31.0 °F 21.9 °F 59% 29.83 in 10.0 mi SSW 4.6 mph - N/A   Clear
10:53 PM 35.1 °F 32.2 °F 21.9 °F 59% 29.83 in 10.0 mi SW 3.5 mph - N/A   Clear
11:53 PM 35.1 °F - 23.0 °F 61% 29.82 in 10.0 mi Calm Calm - N/A   Clear